Weather History for Central Park, NY

Change the Weather History Date:

Thursday, June 28, 2012

  Actual Average Record
Temperature  
Mean Temperature 78 °F 75 °F  
Max Temperature 88 °F 83 °F 96 °F (1991)
Min Temperature 68 °F 67 °F 54 °F (1995)
Degree Days  
Heating Degree Days 0 0  
Month to date heating degree days 15 17  
Since 1 June heating degree days 15 17  
Since 1 July heating degree days 3715 4748  
Cooling Degree Days 13 10  
Month to date cooling degree days 165 192  
Year to date cooling degree days 280 261  
Since 1 June cooling degree days 165 192  
Growing Degree Days 28 (Base 50)    
Moisture  
Dew Point 55 °F    
Average Humidity 46    
Maximum Humidity 57    
Minimum Humidity 34    
Precipitation  
Precipitation 0.00 in 0.13 in 1.69 in (1938)
Month to date precipitation 2.76 4.16  
Year to date precipitation 17.26 23.95  
Snow  
Snow 0.00 in 0.00 in 0.00 in (2002)
Month to date snowfall 0.0 0.0  
Since 1 July snowfall 7.4 25.8  
Snow Depth 0.00 in    
Sea Level Pressure  
Sea Level Pressure 29.78 in    
Wind  
Wind Speed 5 mph (West)    
Max Wind Speed 12 mph    
Max Gust Speed 21 mph    
Visibility 10 miles    
Events      
T = Trace of Precipitation, MM = Missing Value Source: NWS Daily Summary

Daily Weather History Graph

Daily Weather History Graph

Search for Another Location

Airport:

Trip Planner

Search our weather history database for the weather conditions in past years. The results will help you decide how hot, cold, wet, or windy it might be!

Date:

Astronomy

Jun. 28, 2012 Rise Set
Actual Time 5:27 AM EDT 8:31 PM EDT
Civil Twilight 4:53 AM EDT 9:04 PM EDT
Nautical Twilight 4:11 AM EDT 9:47 PM EDT
Astronomical Twilight 3:20 AM EDT 10:37 PM EDT
Moon 3:01 PM EDT (6/28) 12:59 AM EDT (6/28)
Length of Visible Light 16h 11m
Length of Day
15h 04m
Waxing Gibbous, 67% of the Moon is Illuminated
Jun 28
Waxing Gibbous
Jul 3
Full
Jul 10
Last Quarter
Jul 19
New
Jul 26
First Quarter

Hourly Weather History & Observations

Time (EDT) Temp. Heat Index Dew Point Humidity Pressure Visibility Wind Dir Wind Speed Gust Speed Precip Events Conditions
12:51 AM 73.0 °F - 51.1 °F 46% 29.83 in 10.0 mi West 8.1 mph - N/A   Clear
1:51 AM 71.1 °F - 52.0 °F 51% 29.82 in 10.0 mi Variable 6.9 mph - N/A   Clear
2:51 AM 70.0 °F - 51.1 °F 51% 29.83 in 10.0 mi West 5.8 mph - N/A   Clear
3:51 AM 69.1 °F - 52.0 °F 54% 29.82 in 10.0 mi West 5.8 mph - N/A   Clear
4:51 AM 69.1 °F - 53.1 °F 57% 29.82 in 10.0 mi West 6.9 mph - N/A   Clear
5:51 AM 69.1 °F - 53.1 °F 57% 29.83 in 10.0 mi West 6.9 mph - N/A   Clear
6:51 AM 69.1 °F - 53.1 °F 57% 29.83 in 10.0 mi Variable 4.6 mph - N/A   Clear
7:51 AM 71.1 °F - 53.1 °F 53% 29.83 in 10.0 mi Variable 5.8 mph - N/A   Clear
8:51 AM 73.0 °F - 54.0 °F 51% 29.84 in 10.0 mi Calm Calm - N/A   Clear
9:51 AM 75.0 °F - 53.1 °F 46% 29.83 in 10.0 mi West 6.9 mph - N/A   Clear
10:51 AM 79.0 °F - 54.0 °F 42% 29.82 in 10.0 mi Variable 6.9 mph - N/A   Clear
11:51 AM 82.0 °F 81.3 °F 54.0 °F 38% 29.80 in 10.0 mi North - - N/A   Clear
12:51 PM 84.0 °F 83.0 °F 55.9 °F 38% 29.78 in 10.0 mi Variable 4.6 mph - N/A   Clear
1:51 PM 86.0 °F 84.9 °F 57.0 °F 37% 29.76 in 10.0 mi Variable 3.5 mph - N/A   Clear
2:51 PM 87.1 °F 86.1 °F 57.9 °F 37% 29.75 in 10.0 mi Variable 3.5 mph - N/A   Clear
3:51 PM 88.0 °F 86.1 °F 55.0 °F 32% 29.74 in 10.0 mi North - - N/A   Mostly Cloudy
4:51 PM 88.0 °F 86.9 °F 57.9 °F 36% 29.73 in 10.0 mi Variable 3.5 mph - N/A   Scattered Clouds
5:51 PM 88.0 °F 86.5 °F 55.9 °F 34% 29.72 in 10.0 mi West 10.4 mph 20.7 mph N/A   Clear
6:51 PM 86.0 °F 84.9 °F 57.0 °F 37% 29.73 in 10.0 mi Variable 5.8 mph - N/A   Mostly Cloudy
7:51 PM 84.9 °F 83.7 °F 55.9 °F 37% 29.73 in 10.0 mi West 5.8 mph - N/A   Clear
8:51 PM 84.0 °F 83.3 °F 57.0 °F 40% 29.72 in 10.0 mi West 8.1 mph - N/A   Clear
9:51 PM 82.0 °F 81.7 °F 57.0 °F 42% 29.73 in 10.0 mi West 3.5 mph - N/A   Clear
10:51 PM 82.0 °F 82.0 °F 57.9 °F 44% 29.73 in 10.0 mi Variable 6.9 mph - N/A   Clear
11:51 PM 81.0 °F 81.6 °F 60.1 °F 49% 29.73 in 10.0 mi SW 8.1 mph - N/A   Clear